Regional Weather Roundup
Issued by NWS Goodland, KS

Home | Current Version | Previous Version | Graphics & Text | Print | Product List | Glossary On
Versions: 1 2 3 4 5 6 7 8 9 10 11 12 13 14 15 16 17 18 19 20 21 22 23 24 25 26 27 28 29 30 31 32 33 34 35 36 37 38 39 40 41 42 43 44 45 46 47 48 49 50
000
ASUS43 KGLD 272308
RWRGLD

GOODLAND FORECAST AREA HOURLY WEATHER ROUNDUP
NATIONAL WEATHER SERVICE GOODLAND KS
500 PM MDT TUE SEP 27 2016

...OFFICIAL OBSERVATIONS...

CITY           SKY/WX    TMP DP  RH WIND       PRES   REMARKS
GOODLAND KS    SUNNY     86  30  13 NW5       30.02F
HILL CITY KS   SUNNY     86  48  26 CALM      29.95F HAZE
IMPERIAL NEB   SUNNY     86  27  11 NW9       30.00F
MCCOOK NEB     SUNNY     86  41  20 W8        29.96F
AKRON CO       SUNNY     81  24  12 CALM      30.09F
BURLINGTON CO  SUNNY     83  29  14 SW7       30.06F
LIMON CO       SUNNY     83  23  11 N8        30.13S
$$

...UNOFFICIAL OBSERVATIONS...

CITY           SKY/WX    TMP DP  RH WIND       PRES   REMARKS
COLBY KS       SUNNY     88  41  19 W9        30.01S
LENORA KS        N/A     83  32  16 MISG        N/A
NORTON KS      SUNNY     84  32  15 W12       29.94F
SHARON SPRINGS   N/A     84  38  20 NW6         N/A
KIT CARSON CO    N/A     87  38  18 CALM        N/A
$$



USA.gov is the U.S. government's official web portal to all federal, state and local government web resources and services.